Date String (YYYY-MM-DD hh:mm:ss) UTC,Instrument flags,Ambient pressure (hPa),Sample flow (lpm),Bypass flow (lpm),Sample temperature (°C),Ambient temperature (°C),ASC tube jacket temperature (°C),LED temperature (°C),Box temperature (°C),Sample RH (%),Span deviation,Mass concentration (μg/m³),Mass concentration (μg/m³),Mass concentration (μg/m³)
DateTimeUTC,F1_M11,P_M11,Q1_M11,Q2_M11,T1_M11,T2_M11,T3_M11,T4_M11,T5_M11,U1_M11,ZSPAN_M11,X0_M11,X2_M11,X1_M11
2023-05-05 07:00:00,,0826.8,5.01,0.00,29.9,27.8,00.0,38.6,31.2,20.3,0000.0,0011.18,0004.36,0002.47
2023-05-05 07:01:00,,0826.8,4.99,0.00,29.8,27.8,00.0,38.5,31.1,20.3,0000.0,0010.16,0004.25,0002.46
2023-05-05 07:02:00,,0826.8,5.00,0.00,29.7,27.7,00.0,38.5,31.0,20.1,0000.0,0009.91,0004.15,0002.44
2023-05-05 07:03:00,,0826.7,5.01,0.00,29.7,27.6,00.0,38.5,31.0,20.1,0000.0,0010.24,0004.12,0002.42
2023-05-05 07:04:00,,0826.6,5.01,0.00,29.6,27.6,00.0,38.4,31.0,20.3,0000.0,0010.51,0004.07,0002.40
2023-05-05 07:05:00,,0826.6,5.00,0.00,29.6,27.6,00.0,38.4,30.9,20.4,0000.0,0010.39,0004.04,0002.37
2023-05-05 07:06:00,,0826.5,5.01,0.00,29.6,27.6,00.0,38.3,30.9,20.5,0000.0,0010.53,0004.07,0002.37
2023-05-05 07:07:00,,0826.5,5.00,0.00,29.6,27.6,00.0,38.3,31.0,20.6,0000.0,0010.16,0004.08,0002.37
2023-05-05 07:08:00,,0826.4,4.98,0.00,29.6,27.6,00.0,38.3,31.0,20.6,0000.0,0010.21,0004.07,0002.38
2023-05-05 07:09:00,,0826.4,5.00,0.00,29.6,27.7,00.0,38.3,31.0,20.7,0000.0,0010.09,0004.01,0002.37
2023-05-05 07:10:00,,0826.3,5.01,0.00,29.6,27.7,00.0,38.2,31.1,20.6,0000.0,0010.29,0004.01,0002.35
2023-05-05 07:11:00,,0826.3,5.01,0.00,29.6,27.8,00.0,38.2,31.1,20.6,0000.0,0010.56,0004.00,0002.34
2023-05-05 07:12:00,,0826.3,5.01,0.00,29.6,27.9,00.0,38.2,31.1,20.6,0000.0,0011.13,0004.05,0002.33
2023-05-05 07:13:00,,0826.3,4.99,0.00,29.6,27.9,00.0,38.2,31.1,20.6,0000.0,0011.69,0004.11,0002.33
2023-05-05 07:14:00,,0826.4,5.01,0.00,29.6,27.9,00.0,38.2,31.2,20.6,0000.0,0011.50,0004.16,0002.35
2023-05-05 07:15:00,,0826.4,5.00,0.00,29.6,28.0,00.0,38.2,31.2,20.5,0000.0,0011.36,0004.17,0002.36
2023-05-05 07:16:00,,0826.4,5.00,0.00,29.6,28.0,00.0,38.2,31.2,20.5,0000.0,0011.98,0004.20,0002.36
2023-05-05 07:17:00,,0826.4,5.00,0.00,29.6,28.0,00.0,38.2,31.2,20.6,0000.0,0012.88,0004.19,0002.36
2023-05-05 07:18:00,,0826.3,5.01,0.00,29.6,28.0,00.0,38.1,31.1,20.6,0000.0,0012.85,0004.17,0002.35
2023-05-05 07:19:00,,0826.4,4.99,0.00,29.6,27.9,00.0,38.1,31.1,20.6,0000.0,0012.76,0004.17,0002.32
2023-05-05 07:20:00,,0826.4,5.01,0.00,29.6,27.9,00.0,38.1,31.1,20.6,0000.0,0012.77,0004.21,0002.32
2023-05-05 07:21:00,,0826.3,5.00,0.00,29.6,27.9,00.0,38.1,31.1,20.6,0000.0,0012.76,0004.20,0002.32
2023-05-05 07:22:00,,0826.3,5.00,0.00,29.6,27.9,00.0,38.1,31.2,20.6,0000.0,0012.42,0004.12,0002.32
2023-05-05 07:23:00,,0826.3,5.00,0.00,29.6,28.0,00.0,38.1,31.2,20.5,0000.0,0011.91,0004.09,0002.33
2023-05-05 07:24:00,,0826.2,5.00,0.00,29.6,28.0,00.0,38.1,31.2,20.5,0000.0,0011.32,0004.05,0002.33
2023-05-05 07:25:00,,0826.2,5.00,0.00,29.6,28.0,00.0,38.1,31.2,20.5,0000.0,0011.18,0004.01,0002.32
2023-05-05 07:26:00,,0826.1,4.99,0.00,29.7,28.1,00.0,38.1,31.2,20.5,0000.0,0011.19,0003.98,0002.31
2023-05-05 07:27:00,,0826.0,5.01,0.00,29.7,28.1,00.0,38.1,31.2,20.4,0000.0,0010.37,0003.94,0002.31
2023-05-05 07:28:00,,0825.9,5.01,0.00,29.7,28.2,00.0,38.1,31.2,20.3,0000.0,0009.21,0003.88,0002.29
2023-05-05 07:29:00,,0826.0,4.99,0.00,29.7,28.2,00.0,38.1,31.2,20.5,0000.0,0008.74,0003.83,0002.28
2023-05-05 07:30:00,,0826.1,5.00,0.00,29.7,28.2,00.0,38.1,31.3,20.6,0000.0,0008.78,0003.80,0002.26
2023-05-05 07:31:00,,0826.2,5.01,0.00,29.7,28.2,00.0,38.1,31.2,20.8,0000.0,0009.22,0003.71,0002.24
2023-05-05 07:32:00,,0826.2,5.00,0.00,29.7,28.2,00.0,38.1,31.2,20.7,0000.0,0009.07,0003.66,0002.22
2023-05-05 07:33:00,,0826.2,5.01,0.00,29.7,28.2,00.0,38.1,31.2,20.7,0000.0,0009.25,0003.75,0002.21
2023-05-05 07:34:00,,0826.2,5.00,0.00,29.7,28.3,00.0,38.1,31.2,20.6,0000.0,0009.54,0003.74,0002.19
2023-05-05 07:35:00,,0826.1,4.98,0.00,29.8,28.3,00.0,38.1,31.2,20.5,0000.0,0009.53,0003.76,0002.17
2023-05-05 07:36:00,,0826.1,5.01,0.00,29.8,28.3,00.0,38.1,31.3,20.4,0000.0,0009.74,0003.78,0002.16
2023-05-05 07:37:00,,0826.0,5.00,0.00,29.8,28.3,00.0,38.2,31.3,20.3,0000.0,0009.92,0003.83,0002.15
2023-05-05 07:38:00,,0826.0,4.99,0.00,29.8,28.3,00.0,38.2,31.3,20.3,0000.0,0009.84,0003.81,0002.14
2023-05-05 07:39:00,,0826.0,5.00,0.00,29.8,28.3,00.0,38.2,31.3,20.3,0000.0,0010.09,0003.87,0002.14
2023-05-05 07:40:00,,0826.0,5.01,0.00,29.8,28.3,00.0,38.2,31.3,20.3,0000.0,0010.17,0003.88,0002.13
2023-05-05 07:41:00,,0825.9,5.01,0.00,29.8,28.3,00.0,38.2,31.3,20.3,0000.0,0010.16,0003.89,0002.14
2023-05-05 07:42:00,,0825.8,4.98,0.00,29.8,28.3,00.0,38.2,31.3,20.2,0000.0,0009.56,0003.91,0002.15
2023-05-05 07:43:00,,0825.9,5.01,0.00,29.8,28.3,00.0,38.2,31.3,20.2,0000.0,0009.58,0003.92,0002.18
2023-05-05 07:44:00,,0825.9,5.01,0.00,29.8,28.3,00.0,38.2,31.3,20.2,0000.0,0009.45,0003.84,0002.17
2023-05-05 07:45:00,,0825.9,4.98,0.00,29.8,28.2,00.0,38.2,31.3,20.1,0000.0,0009.14,0003.83,0002.18
2023-05-05 07:46:00,,0825.9,5.00,0.00,29.8,28.2,00.0,38.2,31.3,20.1,0000.0,0008.84,0003.75,0002.17
2023-05-05 07:47:00,,0825.9,5.00,0.00,29.8,28.2,00.0,38.2,31.3,20.2,0000.0,0008.76,0003.72,0002.17
2023-05-05 07:48:00,,0825.9,5.00,0.00,29.8,28.2,00.0,38.2,31.3,20.5,0000.0,0008.47,0003.69,0002.17
2023-05-05 07:49:00,,0825.8,5.00,0.00,29.8,28.2,00.0,38.2,31.3,20.5,0000.0,0008.63,0003.69,0002.18
2023-05-05 07:50:00,,0825.9,4.99,0.00,29.8,28.2,00.0,38.2,31.4,20.4,0000.0,0008.99,0003.76,0002.21
2023-05-05 07:51:00,,0825.8,5.00,0.00,29.8,28.2,00.0,38.2,31.4,20.4,0000.0,0009.32,0003.74,0002.23
2023-05-05 07:52:00,,0825.8,5.00,0.00,29.8,28.2,00.0,38.2,31.3,20.3,0000.0,0009.39,0003.73,0002.25
2023-05-05 07:53:00,,0825.8,5.01,0.00,29.8,28.1,00.0,38.2,31.3,20.2,0000.0,0010.26,0003.75,0002.27
2023-05-05 07:54:00,,0825.8,5.00,0.00,29.8,28.1,00.0,38.2,31.3,20.3,0000.0,0010.75,0003.80,0002.28
2023-05-05 07:55:00,,0825.7,4.99,0.00,29.8,28.1,00.0,38.2,31.3,20.3,0000.0,0011.23,0003.89,0002.30
2023-05-05 07:56:00,,0825.7,4.99,0.00,29.8,28.1,00.0,38.2,31.3,20.3,0000.0,0011.46,0003.95,0002.31
2023-05-05 07:57:00,,0825.6,5.00,0.00,29.8,28.1,00.0,38.2,31.3,20.2,0000.0,0011.82,0004.03,0002.35
2023-05-05 07:58:00,,0825.6,5.01,0.00,29.8,28.2,00.0,38.2,31.3,20.2,0000.0,0011.95,0004.10,0002.39
2023-05-05 07:59:00,,0825.6,5.00,0.00,29.8,28.2,00.0,38.2,31.3,20.1,0000.0,0012.05,0004.15,0002.41
